{"data":{"norad_id":67637,"epoch":"2026-05-25T02:54:32.361696Z","epoch_age_seconds":60541,"freshness":"FRESH","line1":"1 67637U 26020W   26145.12120789  .00020541  00000+0  75360-3 0  9992","line2":"2 67637  43.0030  68.0589 0001722 272.3205  87.7449 15.27591911 17806","mean_motion":15.27591911,"eccentricity":0.0001722,"inclination_deg":43.003,"raan_deg":68.0589,"arg_perigee_deg":272.3205,"mean_anomaly_deg":87.7449,"bstar":0.0007536,"rev_number":1780,"period_min":94.266013693234,"perigee_km":481.83194034832,"apogee_km":484.19492055656,"semimajor_km":6861.1504304524,"source":"CELESTRAK","updated_at":"2026-05-25T13:38:21.653779Z"}}